Change the Weather History Date:

Thursday, November 1, 2012

  Actual Average (KBIS) Record (KBIS)
Temperature  
Mean Temperature 32 °F 37 °F  
Max Temperature 37 °F 49 °F 73 °F (1887)
Min Temperature 28 °F 26 °F 0 °F (1951)
Degree Days  
Heating Degree Days 32 28  
Month to date heating degree days 28  
Since 1 July heating degree days 940  
Cooling Degree Days 0 0  
Month to date cooling degree days 0  
Year to date cooling degree days 520  
Moisture  
Dew Point 28 °F    
Average Humidity 85    
Maximum Humidity 100    
Minimum Humidity 60    
Precipitation  
Precipitation 0.00 in 0.03 in 0.59 in (1944)
Month to date precipitation 0.03  
Year to date precipitation 16.68  
Snow  
Snow 0.00 in 0.20 in 3.60 in (1992)
Month to date snowfall 0.2  
Since 1 July snowfall 2.6  
Since 1 September snowfall 2.6  
Snow Depth -    
Sea Level Pressure  
Sea Level Pressure 30.07 in    
Wind  
Wind Speed 10 mph (East)    
Max Wind Speed 17 mph    
Max Gust Speed 24 mph    
Visibility 10 miles    
Events      
T = Trace of Precipitation, MM = Missing Value Source: NWS Daily Summary

Daily Weather History Graph

Daily Weather History Graph

Search for Another Location

Airport or City:

Trip Planner

Search our weather history database for the weather conditions in past years. The results will help you decide how hot, cold, wet, or windy it might be!

Date:

Astronomy

Nov. 01, 2012 Rise Set
Actual Time 8:26 AM CDT 6:27 PM CDT
Civil Twilight 7:54 AM CDT 6:58 PM CDT
Nautical Twilight 7:18 AM CDT 7:34 PM CDT
Astronomical Twilight 6:43 AM CDT 8:09 PM CDT
Moon 8:17 PM CDT (11/1) 11:08 AM CDT (11/1)
Length of Visible Light 11h 03m
Length of Day
10h 00m
Waning Gibbous, 93% of the Moon is Illuminated
Nov 1
Waning Gibbous
Nov 6
Last Quarter
Nov 13
New
Nov 20
First Quarter
Nov 28
Full

Hourly Weather History & Observations

Time (CDT) Temp. Windchill Dew Point Humidity Pressure Visibility Wind Dir Wind Speed Gust Speed Precip Events Conditions
12:15 AM 35.6 °F 28.6 °F 33.8 °F 93% 30.13 in 10.0 mi North 9.2 mph - N/A   Overcast
12:35 AM 35.6 °F 28.6 °F 33.8 °F 93% 30.13 in 10.0 mi NNE 9.2 mph - N/A   Overcast
12:55 AM 35.6 °F 30.7 °F 33.8 °F 93% 30.13 in 10.0 mi North 5.8 mph - N/A   Overcast
1:15 AM 35.6 °F 31.7 °F 33.8 °F 93% 30.13 in 10.0 mi NNW 4.6 mph - N/A   Overcast
1:35 AM 35.6 °F 29.2 °F 32.0 °F 87% 30.13 in 10.0 mi NNW 8.1 mph - N/A   Overcast
1:55 AM 33.8 °F 27.0 °F 32.0 °F 93% 30.12 in 10.0 mi North 8.1 mph - N/A   Overcast
2:15 AM 33.8 °F 28.6 °F 32.0 °F 93% 30.13 in 10.0 mi NNW 5.8 mph - N/A   Overcast
2:35 AM 33.8 °F 28.6 °F 32.0 °F 93% 30.13 in 10.0 mi North 5.8 mph - N/A   Overcast
2:55 AM 32.0 °F 24.2 °F 32.0 °F 100% 30.12 in 10.0 mi NNE 9.2 mph - N/A   Overcast
3:15 AM 32.0 °F 25.6 °F 32.0 °F 100% 30.11 in 10.0 mi NNE 6.9 mph - N/A   Overcast
3:35 AM 32.0 °F 27.5 °F 32.0 °F 100% 30.11 in 10.0 mi NNE 4.6 mph - N/A   Overcast
3:55 AM 32.0 °F 27.5 °F 32.0 °F 100% 30.10 in 10.0 mi NE 4.6 mph - N/A   Overcast
4:15 AM 32.0 °F 27.5 °F 32.0 °F 100% 30.11 in 10.0 mi North 4.6 mph - N/A   Overcast
4:35 AM 32.0 °F 25.6 °F 32.0 °F 100% 30.12 in 10.0 mi North 6.9 mph - N/A   Overcast
4:55 AM 32.0 °F 25.6 °F 32.0 °F 100% 30.11 in 10.0 mi NNE 6.9 mph - N/A   Overcast
5:35 AM 32.0 °F 26.4 °F 32.0 °F 100% 30.11 in 10.0 mi NE 5.8 mph - N/A   Overcast
6:15 AM 32.0 °F 24.8 °F 32.0 °F 100% 30.11 in 10.0 mi NE 8.1 mph - N/A   Overcast
6:35 AM 32.0 °F 24.8 °F 32.0 °F 100% 30.12 in 10.0 mi ENE 8.1 mph - N/A   Overcast
6:55 AM 32.0 °F 23.0 °F 32.0 °F 100% 30.11 in 10.0 mi East 11.5 mph - N/A   Overcast
7:15 AM 32.0 °F 23.0 °F 32.0 °F 100% 30.11 in 10.0 mi East 11.5 mph - N/A   Overcast
7:35 AM 32.0 °F 23.6 °F 30.2 °F 93% 30.12 in 10.0 mi East 10.4 mph - N/A   Overcast
7:55 AM 32.0 °F 23.6 °F 30.2 °F 93% 30.12 in 10.0 mi East 10.4 mph - N/A   Overcast
8:15 AM 32.0 °F 24.2 °F 30.2 °F 93% 30.12 in 10.0 mi East 9.2 mph - N/A   Overcast
8:35 AM 32.0 °F 23.6 °F 28.4 °F 87% 30.13 in 10.0 mi East 10.4 mph - N/A   Overcast
8:55 AM 32.0 °F 24.2 °F 28.4 °F 87% 30.13 in 10.0 mi ESE 9.2 mph - N/A   Overcast
9:15 AM 32.0 °F 23.0 °F 28.4 °F 87% 30.13 in 10.0 mi East 11.5 mph - N/A   Overcast
9:35 AM 32.0 °F 23.0 °F 28.4 °F 87% 30.12 in 10.0 mi East 11.5 mph - N/A   Overcast
10:55 AM 32.0 °F 23.0 °F 28.4 °F 87% 30.12 in 10.0 mi East 11.5 mph - N/A   Overcast
11:15 AM 32.0 °F 22.5 °F 28.4 °F 87% 30.11 in 10.0 mi East 12.7 mph - N/A   Overcast
11:35 AM 32.0 °F 23.0 °F 28.4 °F 87% 30.11 in 10.0 mi ESE 11.5 mph - N/A   Overcast
11:55 AM 32.0 °F 22.1 °F 28.4 °F 87% 30.11 in 10.0 mi ESE 13.8 mph - N/A   Overcast
12:15 PM 32.0 °F 21.2 °F 26.6 °F 80% 30.10 in 10.0 mi ESE 16.1 mph - N/A   Overcast
12:35 PM 33.8 °F 24.3 °F 26.6 °F 75% 30.10 in 10.0 mi SE 13.8 mph 19.6 mph N/A   Mostly Cloudy
12:55 PM 35.6 °F 26.2 °F 26.6 °F 70% 30.08 in 10.0 mi ESE 15.0 mph 18.4 mph N/A   Overcast
1:15 PM 35.6 °F 26.6 °F 26.6 °F 70% 30.07 in 10.0 mi East 13.8 mph 24.2 mph N/A   Scattered Clouds
1:35 PM 35.6 °F 25.9 °F 26.6 °F 70% 30.06 in 10.0 mi East 16.1 mph - N/A   Clear
1:55 PM 35.6 °F 26.6 °F 26.6 °F 70% 30.06 in 10.0 mi ESE 13.8 mph 19.6 mph N/A   Clear
2:15 PM 35.6 °F 27.1 °F 26.6 °F 70% 30.05 in 10.0 mi East 12.7 mph - N/A   Clear
2:35 PM 35.6 °F 27.1 °F 26.6 °F 70% 30.04 in 10.0 mi East 12.7 mph - N/A   Clear
2:55 PM 35.6 °F 27.1 °F 26.6 °F 70% 30.04 in 10.0 mi ESE 12.7 mph - N/A   Clear
3:35 PM 35.6 °F 27.5 °F 24.8 °F 65% 30.02 in 10.0 mi ESE 11.5 mph - N/A   Clear
4:15 PM 37.4 °F 28.5 °F 24.8 °F 60% 30.02 in 10.0 mi ESE 15.0 mph - N/A   Clear
4:35 PM 37.4 °F 28.5 °F 24.8 °F 60% 30.01 in 10.0 mi East 15.0 mph - N/A   Clear
5:15 PM 37.4 °F 28.9 °F 24.8 °F 60% 30.01 in 10.0 mi East 13.8 mph 21.9 mph N/A   Clear
5:35 PM 35.6 °F 26.6 °F 24.8 °F 65% 30.01 in 10.0 mi East 13.8 mph - N/A   Clear
6:15 PM 35.6 °F 26.6 °F 24.8 °F 65% 30.00 in 10.0 mi East 13.8 mph - N/A   Clear
6:35 PM 33.8 °F 24.8 °F 24.8 °F 70% 29.99 in 10.0 mi East 12.7 mph - N/A   Clear
6:55 PM 33.8 °F 23.9 °F 24.8 °F 70% 30.00 in 10.0 mi East 15.0 mph - N/A   Clear
7:15 PM 32.0 °F 22.1 °F 24.8 °F 75% 29.99 in 10.0 mi East 13.8 mph - N/A   Clear
7:35 PM 32.0 °F 21.2 °F 24.8 °F 75% 30.00 in 10.0 mi East 16.1 mph 20.7 mph N/A   Scattered Clouds
7:55 PM 32.0 °F 21.2 °F 24.8 °F 75% 30.02 in 10.0 mi East 16.1 mph 19.6 mph N/A   Mostly Cloudy
8:15 PM 32.0 °F 20.8 °F 26.6 °F 80% 30.01 in 10.0 mi East 17.3 mph 21.9 mph N/A   Scattered Clouds
8:35 PM 32.0 °F 22.1 °F 26.6 °F 80% 30.03 in 10.0 mi East 13.8 mph 19.6 mph N/A   Clear
8:55 PM 30.2 °F 20.2 °F 26.6 °F 86% 30.04 in 10.0 mi East 12.7 mph - N/A   Clear
9:15 PM 30.2 °F 19.8 °F 26.6 °F 86% 30.03 in 10.0 mi East 13.8 mph - N/A   Scattered Clouds
9:35 PM 30.2 °F 19.3 °F 26.6 °F 86% 30.02 in 10.0 mi East 15.0 mph - N/A   Mostly Cloudy
9:55 PM 28.4 °F 17.0 °F 26.6 °F 93% 30.02 in 10.0 mi East 15.0 mph - N/A   Scattered Clouds
10:15 PM 28.4 °F 18.0 °F 26.6 °F 93% 30.01 in 10.0 mi East 12.7 mph - N/A   Partly Cloudy
10:35 PM 28.4 °F 17.0 °F 26.6 °F 93% 30.00 in 10.0 mi East 15.0 mph 21.9 mph N/A   Partly Cloudy
10:55 PM 28.4 °F 17.0 °F 26.6 °F 93% 30.00 in 10.0 mi East 15.0 mph 23.0 mph N/A   Clear
11:15 PM 28.4 °F 16.2 °F 26.6 °F 93% 30.00 in 10.0 mi East 17.3 mph - N/A   Clear
11:35 PM 28.4 °F 18.5 °F 24.8 °F 86% 30.02 in 10.0 mi ESE 11.5 mph 18.4 mph N/A   Clear
11:55 PM 28.4 °F 18.0 °F 24.8 °F 86% 30.03 in 10.0 mi East 12.7 mph 19.6 mph N/A   Clear